Location: Central Coast NSW, Australia
(33.2407°S, 151.4316°E)
Time: 03:42:31
(UTC+10:00)

N. Korean satellite - Pass Details

Date: 26 March 2019
Orbit: 458 x 508 km, 97.2° (Epoch: 25 April)

Event Time Altitude Azimuth Distance (km) Brightness Sun altitude
Rises 06:26:40 0° 8° (N) 2,594 10.3 -8.1°
Reaches altitude 10° 06:28:44 10° 6° (N) 1,722 9.4 -7.6°
Maximum altitude 06:32:27 74° 280° (W) 541 6.6 -6.9°
Drops below altitude 10° 06:36:15 10° 195° (SSW) 1,755 9.3 -6.1°
Sets 06:38:22 0° 193° (SSW) 2,649 10.2 -5.6°
